COSMOS 249 DEB *, 3679

Orbit data source: Space-Track

COSMOS 249 DEB *, 3679 is space debris in LEO originally from a launch on Sun, 20 Oct 1968 UTC launched from the Tyuratam Missile And Space Complex (TTMTR). Debris objects in space refer to the collection of defunct objects orbiting the Earth. Examples of debris include non-operational satellites, rocket bodies, and fragments generated from explosions, collisions, or faulty payload assembly.

Loading next visibility...
Identifier
3679, 1968-091AE
Orbit
LEO
Country
Flag of CISCIS
Related business
Manufacturer
Unknown
Mission
Spacecraft
Bus & Motor
Unknown
Mass
Unknown
Launch date (UTC)
1968-10-20 (58 years ago)
Launch vehicle
Unknown
Launch site
Tyuratam Missile And Space Complex (TTMTR)
Object type
Payload
Rocket body
Debris
Shape & HBR
Unknown shape, 0.1 m
Radar Cross Section
Medium (>0.1 m² and <1 m²)

Expand to show TLE details & history
Last TLE update: 11 hours ago

TLE from 11 hours ago
0 COSMOS 249 DEB *
1 03679U 68091AE  26174.77388155  .00001848  00000-0  50076-3 0  9995
2 03679  62.7522 314.6401 0472529 246.8103 108.2519 14.00498206785351
Epoch: 2026-06-23T18:34Z
TLE epoch observation values (Epoch: 2026-06-23T18:34:23.365Z)
Latitude
-0.00002°
Longitude
124.10211°
Altitude
1,015.731 km
Speed
7.283 km/s
True Right ascension
20h 58m 33s
True Declination
0° 00' 00"
Sunlit
Object was in full shadow at epoch
Visualization orbit readout
Latitude
Unknown
Longitude
Unknown
Altitude
Unknown
Speed
Unknown
Apparent Right ascension
Unknown
Apparent Declination
Unknown
Sunlit
N/A
Visualization observer readout
Local Sidereal Time
16:18:32
Azimuth
Unknown
Elevation
Unknown
Doppler factor
Unknown
Orbital elements
Apogee altitude
1,234.432 km
Perigee altitude
547.462 km
Semi-major axis
7,269.084 km
Eccentricity
0.04725
Inclination
62.7522°
RAAN
314.6401°
Arg. of periapsis
246.8103°
True anomaly
113.29429°
Mean anomaly
108.2519°
Eccentric anomaly
110.78312°
Mean motion
3.50206 °/min
Orbital period
102.8 mins
BSTAR
0.00050076
Loading maneuver chart data...
Computing Atmospheric mass density...

Documentation

Showing up to 5 results
|